Torna al catalogo

STARLINK-37357

AttivoComunicazioniVLEO
NORAD 69517·PAYLOAD·🇺🇸 United States

Lanciato Jun 12, 2026 da Cape Canaveral Space Force Station

Loading…

Prossimi Passaggi (prossime 24 ore)

TLE

AggiornatoSource: CelesTrak SupGP

Epoca: Sep 14, 2026, 22:59 UTC

1 69517C 26133K   26257.95812500  .00042174  00000+0  12460-2 0  2574
2 69517  53.1563 255.6927 0001303  94.5117 221.9119 15.34370692    19

Traccia STARLINK-37357 in tempo reale con AllMySat

Download on the App Store